This is the latest recevied weather packets stored in our database for station/object K5NAN. If no packets are shown the sender has not sent any weather packets the latest 10 day(s).
| Time | Temp. | Humidity | Pressure | Rain* | Wind** | Luminosity | Snow |
|---|---|---|---|---|---|---|---|
| 1777562683 | 16.67° C | 82% | 1013.7 hPa | 0 mm | - | 133 W/m² | - |
| 1777562377 | 16.67° C | 81% | 1013.9 hPa | 0 mm | - | 152 W/m² | - |
| 1777562073 | 16.67° C | 82% | 1013.8 hPa | 0 mm | - | 207 W/m² | - |
| 1777561770 | 16.67° C | 81% | 1013.6 hPa | 0 mm | - | 215 W/m² | - |
| 1777561466 | 16.67° C | 81% | 1013.5 hPa | 0 mm | - | 285 W/m² | - |
| 1777561162 | 16.67° C | 81% | 1013.6 hPa | 0 mm | - | 256 W/m² | - |
| 1777560862 | 16.67° C | 81% | 1013.5 hPa | 0 mm | - | 205 W/m² | - |
| 1777560560 | 16.67° C | 82% | 1013.4 hPa | 0 mm | - | 212 W/m² | - |
| 1777560258 | 16.67° C | 82% | 1013.3 hPa | 0 mm | - | 225 W/m² | - |
| 1777559955 | 16.67° C | 83% | 1013.4 hPa | 0 mm | - | 191 W/m² | - |
| 1777559655 | 16.67° C | 85% | 1013.1 hPa | 0 mm | - | 155 W/m² | - |
| 1777559354 | 16.67° C | 86% | 1013.1 hPa | 0 mm | - | 153 W/m² | - |
| 1777559049 | 16.11° C | 86% | 1012.9 hPa | 0 mm | - | 155 W/m² | - |
| 1777558744 | 16.11° C | 87% | 1012.8 hPa | 0 mm | - | 179 W/m² | - |
| 1777558440 | 16.11° C | 87% | 1013 hPa | 0 mm | - | 172 W/m² | - |
| 1777558137 | 16.11° C | 88% | 1012.9 hPa | 0 mm | - | 181 W/m² | - |
| 1777557833 | 16.11° C | 88% | 1012.9 hPa | 0 mm | - | 172 W/m² | - |
| 1777557530 | 16.11° C | 89% | 1013.1 hPa | 0 mm | - | 131 W/m² | - |
| 1777557227 | 15.56° C | 89% | 1013.4 hPa | 0 mm | - | 127 W/m² | - |
| 1777556922 | 15.56° C | 90% | 1013.1 hPa | 0 mm | - | 138 W/m² | - |
| 1777556618 | 15.56° C | 90% | 1013 hPa | 0 mm | - | 120 W/m² | - |
| 1777556313 | 15.56° C | 91% | 1013 hPa | 0 mm | - | 106 W/m² | - |
| 1777556010 | 15.56° C | 91% | 1013.1 hPa | 0 mm | - | 98 W/m² | - |
| 1777555710 | 15.56° C | 92% | 1012.8 hPa | 0 mm | - | 110 W/m² | - |
| 1777555407 | 15.56° C | 92% | 1013 hPa | 0 mm | - | 110 W/m² | - |
* Rain latest hour (hover to see other rain measurements)
** Current wind speed in m/s (hover to see current wind gust speed)